This is the latest recevied weather packets stored in our database for station/object EA7KZ-10. If no packets are shown the sender has not sent any weather packets the latest 10 day(s).
| Time | Temp. | Humidity | Pressure | Rain* | Wind** | Luminosity | Snow |
|---|---|---|---|---|---|---|---|
| 1778058600 | 19.44° C | 34% | 1011.8 hPa | - | - | - | - |
| 1778058000 | 19.44° C | 34% | 1011.9 hPa | - | - | - | - |
| 1778057399 | 19.44° C | 34% | 1011.8 hPa | - | - | - | - |
| 1778056800 | 19.44° C | 34% | 1011.9 hPa | - | - | - | - |
| 1778056199 | 19.44° C | 36% | 1012 hPa | - | - | - | - |
| 1778055599 | 19.44° C | 36% | 1011.9 hPa | - | - | - | - |
| 1778055000 | 18.89° C | 37% | 1012 hPa | - | - | - | - |
| 1778054400 | 18.89° C | 38% | 1012.1 hPa | - | - | - | - |
| 1778053799 | 18.33° C | 38% | 1012.1 hPa | - | - | - | - |
| 1778053199 | 18.33° C | 38% | 1012 hPa | - | - | - | - |
| 1778052599 | 18.33° C | 38% | 1012.2 hPa | - | - | - | - |
| 1778051999 | 17.78° C | 38% | 1012.3 hPa | - | - | - | - |
| 1778051400 | 17.78° C | 39% | 1012.5 hPa | - | - | - | - |
| 1778050800 | 17.78° C | 39% | 1012.4 hPa | - | - | - | - |
| 1778050200 | 17.22° C | 40% | 1012.4 hPa | - | - | - | - |
| 1778049599 | 17.22° C | 41% | 1012.4 hPa | - | - | - | - |
| 1778049000 | 16.67° C | 41% | 1012.5 hPa | - | - | - | - |
| 1778048399 | 16.67° C | 42% | 1012.7 hPa | - | - | - | - |
| 1778047800 | 16.11° C | 44% | 1012.6 hPa | - | - | - | - |
| 1778047200 | 15.56° C | 45% | 1012.6 hPa | - | - | - | - |
| 1778046599 | 15° C | 45% | 1012.8 hPa | - | - | - | - |
| 1778045999 | 14.44° C | 45% | 1012.9 hPa | - | - | - | - |
| 1778045400 | 14.44° C | 45% | 1013.1 hPa | - | - | - | - |
| 1778044799 | 14.44° C | 44% | 1013 hPa | - | - | - | - |
| 1778044200 | 14.44° C | 45% | 1012.9 hPa | - | - | - | - |
* Rain since midnight (hover to see other rain measurements)
** Current wind speed in m/s (hover to see current wind gust speed)